Hall Beach,

10:19 PM EDT on October 17, 2017 (GMT -0400)
Hall Beach

Weather History for CYUX - March, 2013

Change the Weather History Date:

Tuesday, March 12, 2013

  Actual Average Record
Temperature  
Mean Temperature -28 °F -  
Max Temperature -16 °F -6 °F 24 °F (2005)
Min Temperature -34 °F -24 °F -43 °F (2001)
Degree Days  
Heating Degree Days 93    
Moisture  
Dew Point -34 °F    
Average Humidity 68    
Maximum Humidity 76    
Minimum Humidity 63    
Precipitation  
Precipitation 0.00 in 0.01 in - ()
Sea Level Pressure  
Sea Level Pressure 30.05 in    
Wind  
Wind Speed 9 mph ()    
Max Wind Speed 16 mph    
Max Gust Speed -    
Visibility 12.4 miles    
Events      
Averages and records for this station are not official NWS values.
T = Trace of Precipitation, MM = Missing Value Source: Averaged Metar Reports

Daily Weather History Graph

Daily Weather History Graph

Search for Another Location

Airport or City:

Trip Planner

Search our weather history database for the weather conditions in past years. The results will help you decide how hot, cold, wet, or windy it might be!

Date:

Astronomy

Mar. 12, 2013 Rise Set
Actual Time 7:57 AM EDT 7:13 PM EDT
Civil Twilight 7:00 AM EDT 8:10 PM EDT
Nautical Twilight 5:52 AM EDT 9:19 PM EDT
Astronomical Twilight 4:33 AM EDT 10:40 PM EDT
Moon 7:22 AM EDT (3/12) 9:27 PM EDT (3/12)
Length of Visible Light 13h 09m
Length of Day
11h 15m
New Moon, 1% of the Moon is Illuminated
Mar 12
New Moon
Mar 19
First Quarter
Mar 27
Full
Apr 3
Last Quarter
Apr 10
New

Hourly Weather History & Observations

Time (EDT) Temp. Windchill Dew Point Humidity Pressure Visibility Wind Dir Wind Speed Gust Speed Precip Events Conditions
12:00 AM -32.8 °F -59.3 °F -40.0 °F 68% 30.13 in 9.0 mi NNW 12.7 mph - N/A   Clear
1:00 AM -32.8 °F -62.3 °F -40.0 °F 68% 30.12 in 9.0 mi NNW 16.1 mph - N/A   Clear
2:00 AM -31.0 °F -59.1 °F -38.2 °F 68% 30.11 in 9.0 mi NW 15.0 mph - N/A   Clear
3:00 AM -32.8 °F -60.4 °F -40.0 °F 68% 30.10 in 9.0 mi NW 13.8 mph - N/A   Clear
4:00 AM -34.6 °F -60.5 °F -41.8 °F 68% 30.09 in 9.0 mi NW 11.5 mph - N/A   Clear
6:00 AM -32.8 °F -61.4 °F -40.0 °F 68% 30.07 in 9.0 mi NNW 15.0 mph - N/A   Clear
7:00 AM -32.8 °F -61.4 °F -40.0 °F 68% 30.07 in 9.0 mi NW 15.0 mph - N/A   Clear
8:00 AM -32.8 °F -60.4 °F -40.0 °F 68% 30.06 in 15.0 mi NNW 13.8 mph - N/A   Clear
9:00 AM -32.8 °F -58.2 °F -40.0 °F 68% 30.05 in 15.0 mi NW 11.5 mph - N/A   Clear
10:00 AM -31.0 °F -53.4 °F -38.2 °F 68% 30.04 in 15.0 mi NW 9.2 mph - N/A   Clear
11:00 AM -29.2 °F -53.7 °F -36.4 °F 68% 30.04 in 15.0 mi NW 11.5 mph - N/A   Clear
12:00 PM -23.8 °F -45.8 °F -32.8 °F 63% 30.02 in 15.0 mi NNW 10.4 mph - N/A   Clear
1:00 PM -22.0 °F -41.0 °F -31.0 °F 63% 30.02 in 15.0 mi NW 8.1 mph - N/A   Clear
2:00 PM -22.0 °F -37.7 °F -31.0 °F 63% 30.02 in 15.0 mi West 5.8 mph - N/A   Clear
3:00 PM -22.0 °F -39.4 °F -29.2 °F 69% 30.01 in 15.0 mi WNW 6.9 mph - N/A   Clear
4:00 PM -22.0 °F -35.6 °F -29.2 °F 69% 30.02 in 15.0 mi WSW 4.6 mph - N/A   Clear
5:00 PM -22.0 °F -35.6 °F -29.2 °F 69% 30.02 in 15.0 mi West 4.6 mph - N/A   Scattered Clouds
6:00 PM -22.0 °F -35.6 °F -29.2 °F 69% 30.02 in 15.0 mi WSW 4.6 mph - N/A   Ice Crystals
7:00 PM -22.0 °F -33.0 °F -29.2 °F 69% 30.03 in 15.0 mi West 3.5 mph - N/A   Ice Crystals
8:00 PM -23.8 °F - -31.0 °F 69% 30.02 in 15.0 mi Calm Calm - N/A   Ice Crystals
9:00 PM -22.0 °F - -29.2 °F 69% 30.03 in 9.0 mi Calm Calm - N/A   Clear
10:00 PM -23.8 °F -37.7 °F -31.0 °F 69% 30.03 in 9.0 mi WSW 4.6 mph - N/A   Clear
11:00 PM -16.6 °F -26.8 °F -22.0 °F 76% 30.04 in 9.0 mi SW 3.5 mph - N/A   Clear